COSMOS 2251

Last updated on Sat Sep 05 2026 00:02:33 GMT+0000 (Coordinated Universal Time)

1 22675U 93036A 26247.54289378 .00000038 00000+0 23115-4 0 9996 2 22675 74.0399 190.2043 0025431 212.4830 147.4757 14.33267794735815
UTC large
Height (km)
Speed (km/s)
/
Latitude / Longitude
Inclination (degrees)
Orbital Period (minutes)
Azimuth
Elevation
Range (km)
Doppler Factor

Next 0 passes for location: London (51.5072 / 0.1276)

No passes found over London.
COSMOS 2251